User: anonymous   Login
Location: Marengo
(51.4813°N, 109.7825°W)
Time: 21:37:41
(UTC+00:00)
Language:

Envisat - Orbit

View from above orbital plane
View from above orbital plane
View from above satellite
View from above satellite

Ground track
Ground track

The orbit data is extracted from the following two-line orbital elements,

1 27386U 02009A   22141.41167050  .00000327  00000-0  12131-3 0  9994
2 27386  98.1820 123.7896 0001326  86.5907  87.4020 14.38122118 59577
Epoch (UTC): 21 May 2022 09:52:48
Eccentricity: 0.0001326
inclination: 98.1820°
perigee height: 764 km
apogee height: 765 km
right ascension of ascending node: 123.7896°
argument of perigee: 86.5907°
revolutions per day: 14.38122118
mean anomaly at epoch: 87.4020°
orbit number at epoch: 5957

The dashed part of the orbit path shows where the satellite is in the earth's shadow,  

DLR